FW2350 Weather Reports


time (UTC)temp
C
wind
direction
speed
KPH
gust
KPH
rain 1hr
cm
rain 24hr
cm
rain mn
cm
humidity
%
barometer
mb
20260510213352 6 53 0.0 3.2 0.00 0.00 0.00 75 1014.5
20260510210345 7 53 1.6 6.4 0.00 0.00 0.00 73 1014.6
20260510203337 7 65 3.2 8.0 0.00 0.00 0.00 72 1014.5
20260510200329 8 65 3.2 8.0 0.00 0.00 0.00 69 1014.5
20260510193321 9 59 3.2 9.7 0.00 0.00 0.00 67 1014.5
20260510190314 10 51 6.4 14.5 0.00 0.00 0.00 62 1014.6
20260510183344 11 30 8.0 16.1 0.00 0.00 0.00 57 1014.5
20260510180317 12 68 9.7 19.3 0.00 0.00 0.00 58 1014.5
20260510173331 13 60 12.9 19.3 0.00 0.00 0.00 55 1014.7
20260510170346 13 56 9.7 25.7 0.00 0.00 0.00 55 1014.9
20260510163319 13 49 16.1 25.7 0.00 0.00 0.00 54 1015.2
20260510160313 13 78 9.7 17.7 0.00 0.00 0.00 59 1015.4
20260510153326 13 58 12.9 22.5 0.00 0.00 0.00 60 1015.6
20260510150320 14 65 12.9 25.7 0.00 0.00 0.00 57 1016.0
20260510143313 14 62 9.7 24.1 0.00 0.00 0.00 59 1016.3
20260510140324 14 48 16.1 29.0 0.00 0.00 0.00 59 1016.4
20260510133318 13 46 11.3 24.1 0.00 0.00 0.00 64 1016.7
20260510130333 12 69 12.9 30.6 0.00 0.00 0.00 68 1017.0
20260510123347 11 49 12.9 25.7 0.00 0.00 0.00 71 1017.3
20260510120341 11 42 14.5 24.1 0.00 0.00 0.00 75 1017.6
20260510113312 11 15 16.1 24.1 0.00 0.00 0.00 76 1018.0
20260510110327 10 71 11.3 22.5 0.00 0.00 0.00 79 1018.2
20260510103319 10 63 14.5 24.1 0.00 0.00 0.00 79 1018.3
20260510100313 10 64 12.9 22.5 0.00 0.00 0.00 79 1018.4
20260510093322 9 57 8.0 19.3 0.00 0.00 0.00 83 1018.6
20260510090317 8 16 8.0 20.9 0.00 0.00 0.00 85 1018.7
20260510083351 8 36 12.9 20.9 0.00 0.00 0.00 85 1018.8
20260510080324 8 63 12.9 20.9 0.00 0.00 0.00 86 1018.8
20260510073315 8 30 9.7 20.9 0.00 0.00 0.00 86 1018.8
20260510070330 8 49 8.0 19.3 0.00 0.00 0.00 87 1018.7
20260510063324 8 44 11.3 30.6 0.00 0.00 0.00 87 1018.6
20260510060316 8 42 12.9 19.3 0.00 0.00 0.00 86 1018.5
20260510053326 8 50 11.3 24.1 0.00 0.00 0.00 87 1018.4
20260510050319 8 53 11.3 16.1 0.00 0.00 0.00 88 1018.5
20260510043352 8 37 9.7 17.7 0.00 0.00 0.00 90 1018.5
20260510040325 8 49 8.0 14.5 0.00 0.00 0.00 90 1018.6
20260510033318 8 355 9.7 16.1 0.00 0.00 0.00 89 1018.7
20260510030353 8 51 11.3 17.7 0.00 0.00 0.00 89 1018.8
20260510023325 8 49 6.4 16.1 0.00 0.00 0.00 89 1019.0
20260510020339 8 65 9.7 16.1 0.00 0.00 0.00 89 1019.1
20260510013329 8 69 9.7 20.9 0.00 0.00 0.00 90 1019.2
20260510010323 8 46 6.4 17.7 0.00 0.00 0.00 90 1019.1
20260510003318 8 55 8.0 17.7 0.00 0.00 0.00 89 1018.9
20260510000333 8 42 11.3 17.7 0.00 0.00 0.00 89 1018.6
20260509233327 9 41 8.0 19.3 0.00 0.00 0.00 87 1018.6
20260509230321 10 55 11.3 20.9 0.00 0.00 0.00 85 1018.8
20260509223313 10 13 8.0 17.7 0.00 0.00 0.00 83 1018.7
20260509220328 11 53 9.7 20.9 0.00 0.00 0.00 83 1018.5